Location: Bremen
(53.0793°N, 8.8017°E)
Time: 18:01:22
(UTC+02:00)

Vanguard 2 Rocket - All Passes

Search period start: 13 April 2024 00:00
Search period end: 23 April 2024 00:00
Orbit: 555 x 3307 km, 32.9° (Epoch: 13 April)

Date Brightness Start Highest point End Pass type
(mag) Time Alt. Az. Time Alt. Az. Time Alt. Az.
13 Apr - 01:31:05 10° SW 01:47:21 33° SSE 02:00:16 10° ESE visible
13 Apr - 03:46:23 10° WSW 04:01:40 33° SSW 04:12:30 10° SE visible
13 Apr - 06:04:34 10° WSW 06:14:22 20° SW 06:21:40 10° S daylight
13 Apr - 22:20:19 10° SSE 22:30:10 16° SE 22:39:50 10° ESE visible
14 Apr - 00:28:18 10° SSW 00:44:06 31° SSE 00:57:43 10° ESE visible
14 Apr - 02:42:14 10° WSW 02:58:44 36° S 03:11:05 10° SE visible
14 Apr - 04:59:17 10° WSW 05:12:20 27° SSW 05:21:42 10° SSE visible
14 Apr - 21:25:01 10° SE 21:27:39 10° SE 21:30:17 10° ESE visible
14 Apr - 23:26:20 10° SSW 23:40:53 27° SSE 23:54:30 10° ESE visible
15 Apr - 01:38:35 10° SW 01:55:31 36° S 02:09:10 10° ESE visible
15 Apr - 03:54:32 10° WSW 04:09:50 32° SSW 04:20:58 10° SE visible
15 Apr - 06:13:49 10° WSW 06:22:15 17° SW 06:28:56 10° S daylight
15 Apr - 22:25:22 10° S 22:37:52 22° SE 22:50:21 10° ESE visible
16 Apr - 00:35:33 10° SW 00:52:08 35° SSE 01:06:42 10° ESE visible
16 Apr - 02:50:13 10° WSW 03:06:55 36° S 03:19:40 10° SE visible
16 Apr - 05:07:55 10° WSW 05:20:18 24° SSW 05:29:35 10° SSE visible
16 Apr - 21:26:02 10° SSE 21:35:09 16° SE 21:44:37 10° ESE visible
16 Apr - 23:33:12 10° SSW 23:48:45 31° SSE 00:03:40 10° ESE visible
17 Apr - 01:46:25 10° WSW 02:03:39 38° S 02:17:50 10° ESE visible
17 Apr - 04:02:52 10° WSW 04:17:52 30° SSW 04:29:10 10° SSE visible
17 Apr - 06:24:04 10° WSW 06:29:57 13° SW 06:35:01 10° SSW daylight
17 Apr - 22:31:41 10° SSW 22:45:34 27° SSE 22:59:53 10° ESE visible
18 Apr - 00:43:11 10° SW 01:00:10 38° S 01:15:27 10° ESE visible
18 Apr - 02:58:23 10° WSW 03:14:59 35° SSW 03:28:01 10° SE visible
18 Apr - 05:16:56 10° WSW 05:28:05 20° SW 05:36:54 10° S visible
18 Apr - 21:31:13 10° S 21:42:41 21° SE 21:55:05 10° ESE visible
18 Apr - 23:40:36 10° SW 23:56:40 35° SSE 00:12:29 10° ESE visible
19 Apr - 01:54:28 10° WSW 02:11:42 38° S 02:26:17 10° SE visible
19 Apr - 04:11:27 10° WSW 04:25:44 27° SSW 04:36:57 10° SSE visible
19 Apr - 20:32:38 10° SSE 20:40:13 14° SE 20:48:28 10° ESE daylight
19 Apr - 22:38:43 10° SSW 22:53:19 31° SSE 23:08:54 10° ESE visible
20 Apr - 00:51:07 10° WSW 01:08:11 39° S 01:23:58 10° ESE visible
20 Apr - 03:06:46 10° WSW 03:22:55 33° SSW 03:36:03 10° SSE visible
20 Apr - 05:26:39 10° WSW 05:35:41 16° SW 05:43:19 10° SSW visible
20 Apr - 21:37:41 10° SSW 21:50:17 25° SE 22:04:32 10° E visible
20 Apr - 23:48:22 10° SW 00:04:36 38° S 00:21:05 10° ESE visible
21 Apr - 02:02:44 10° WSW 02:19:41 37° SSW 02:34:29 10° SE visible
21 Apr - 04:20:23 10° W 04:33:26 23° SW 04:44:12 10° S visible
21 Apr - 20:37:46 10° S 20:47:40 19° SE 20:59:05 10° ESE daylight
21 Apr - 22:46:16 10° SW 23:01:09 35° SSE 23:17:35 10° ESE visible
22 Apr - 00:59:17 10° WSW 01:16:11 39° S 01:32:16 10° SE visible
22 Apr - 03:15:23 10° WSW 03:30:44 29° SSW 03:43:43 10° SSE visible
22 Apr - 05:38:13 10° WSW 05:43:08 12° SW 05:47:39 10° SW visible
22 Apr - 19:40:19 10° SSE 19:45:30 12° SE 19:51:11 10° ESE daylight
22 Apr - 21:44:51 10° SSW 21:57:59 30° SSE 22:13:26 10° ESE visible
